Weather History for KBOW - August, 2012

Change the Weather History Date:

Saturday, August 25, 2012

  Actual Average Record
Temperature  
Mean Temperature 80 °F -  
Max Temperature 89 °F 92 °F 95 °F (1933)
Min Temperature 71 °F 72 °F 65 °F (1957)
Cooling Degree Days 15    
Growing Degree Days 30 (Base 50)    
Moisture  
Dew Point 69 °F    
Average Humidity 73    
Maximum Humidity 100    
Minimum Humidity 43    
Precipitation  
Precipitation 0.00 in - - ()
Sea Level Pressure  
Sea Level Pressure 30.01 in    
Wind  
Wind Speed 8 mph (NE)    
Max Wind Speed 15 mph    
Max Gust Speed 21 mph    
Visibility 9 miles    
Events      
Averages and records for this station are not official NWS values.
T = Trace of Precipitation, MM = Missing Value Source: NWS Daily Summary

Daily Weather History Graph

Daily Weather History Graph

Search for Another Location

Airport or City:

Trip Planner

Search our weather history database for the weather conditions in past years. The results will help you decide how hot, cold, wet, or windy it might be!

Date:

Astronomy

Aug. 25, 2012 Rise Set
Actual Time 7:02 AM EDT 7:55 PM EDT
Civil Twilight 6:38 AM EDT 8:19 PM EDT
Nautical Twilight 6:10 AM EDT 8:47 PM EDT
Astronomical Twilight 5:40 AM EDT 9:16 PM EDT
Moon 3:10 PM EDT (8/25) 1:00 AM EDT (8/25)
Length of Visible Light 13h 40m
Length of Day
12h 52m
Waxing Gibbous, 62% of the Moon is Illuminated
Aug 25
Waxing Gibbous
Aug 31
Full
Sep 8
Last Quarter
Sep 15
New
Sep 22
First Quarter

Hourly Weather History & Observations

Time (EDT) Temp. Heat Index Dew Point Humidity Pressure Visibility Wind Dir Wind Speed Gust Speed Precip Events Conditions
12:35 AM 73.4 °F - 71.6 °F 94% 30.05 in 10.0 mi NNE 5.8 mph - N/A   Mostly Cloudy
12:55 AM 75.2 °F - 71.6 °F 89% 30.05 in 10.0 mi NNE 6.9 mph - N/A   Mostly Cloudy
1:15 AM 75.2 °F - 71.6 °F 89% 30.05 in 10.0 mi NNE 6.9 mph - N/A   Mostly Cloudy
1:35 AM 73.4 °F - 71.6 °F 94% 30.04 in 10.0 mi NNE 6.9 mph - N/A   Mostly Cloudy
1:55 AM 75.2 °F - 71.6 °F 89% 30.04 in 10.0 mi NE 6.9 mph - N/A   Mostly Cloudy
2:15 AM 73.4 °F - 73.4 °F 100% 30.03 in 10.0 mi NE 6.9 mph - N/A   Mostly Cloudy
2:35 AM 73.4 °F - 73.4 °F 100% 30.03 in 10.0 mi ENE 5.8 mph - N/A   Mostly Cloudy
2:55 AM 75.2 °F - 73.4 °F 94% 30.03 in 9.0 mi East 8.1 mph - N/A   Overcast
3:15 AM 75.2 °F - 73.4 °F 94% 30.04 in 10.0 mi East 12.7 mph - N/A   Overcast
3:35 AM 73.4 °F - 71.6 °F 94% 30.02 in 10.0 mi SE 8.1 mph - N/A   Mostly Cloudy
3:55 AM 73.4 °F - 66.2 °F 78% 30.02 in 10.0 mi ESE 4.6 mph - N/A   Mostly Cloudy
4:15 AM 71.6 °F - 66.2 °F 83% 30.01 in 10.0 mi East 3.5 mph - N/A   Mostly Cloudy
4:35 AM 71.6 °F - 68.0 °F 88% 30.01 in 10.0 mi NNE 4.6 mph - N/A   Mostly Cloudy
4:55 AM 71.6 °F - 66.2 °F 83% 29.99 in 10.0 mi North 4.6 mph - N/A   Mostly Cloudy
5:15 AM 73.4 °F - 66.2 °F 78% 29.98 in 10.0 mi NNW 5.8 mph - N/A   Scattered Clouds
5:35 AM 71.6 °F - 66.2 °F 83% 29.97 in 10.0 mi NNW 8.1 mph - N/A   Mostly Cloudy
5:55 AM 73.4 °F - 66.2 °F 78% 29.96 in 10.0 mi North 6.9 mph - N/A   Mostly Cloudy
6:15 AM 73.4 °F - 69.8 °F 88% 29.97 in 10.0 mi NE 6.9 mph - N/A   Scattered Clouds
6:35 AM 71.6 °F - 69.8 °F 94% 29.99 in 10.0 mi NNE 8.1 mph - N/A   Scattered Clouds
6:55 AM 71.6 °F - 69.8 °F 94% 29.99 in 10.0 mi NNE 5.8 mph - N/A   Mostly Cloudy
7:15 AM 71.6 °F - 71.6 °F 100% 30.00 in 8.0 mi NE 5.8 mph - N/A   Mostly Cloudy
7:35 AM 71.6 °F - 71.6 °F 100% 30.01 in 10.0 mi NE 8.1 mph - N/A   Mostly Cloudy
7:55 AM 73.4 °F - 69.8 °F 88% 30.02 in 10.0 mi NNE 8.1 mph - N/A   Mostly Cloudy
8:15 AM 73.4 °F - 66.2 °F 78% 30.02 in 9.0 mi NE 6.9 mph - N/A   Mostly Cloudy
8:35 AM 75.2 °F - 68.0 °F 78% 30.04 in 9.0 mi NE 6.9 mph - N/A   Mostly Cloudy
8:55 AM 77.0 °F - 69.8 °F 78% 30.03 in 9.0 mi NE 8.1 mph - N/A   Mostly Cloudy
9:15 AM 78.8 °F - 69.8 °F 74% 30.03 in 9.0 mi NE 6.9 mph - N/A   Mostly Cloudy
9:35 AM 78.8 °F - 69.8 °F 74% 30.04 in 9.0 mi ENE 13.8 mph - N/A   Mostly Cloudy
9:55 AM 80.6 °F 83.9 °F 69.8 °F 70% 30.05 in 8.0 mi NE 10.4 mph - N/A   Scattered Clouds
10:15 AM 80.6 °F 83.9 °F 69.8 °F 70% 30.04 in 9.0 mi NE 12.7 mph - N/A   Scattered Clouds
10:35 AM 82.4 °F 87.2 °F 71.6 °F 70% 30.05 in 8.0 mi ENE 15.0 mph 19.6 mph N/A   Scattered Clouds
10:55 AM 82.4 °F 87.2 °F 71.6 °F 70% 30.05 in 9.0 mi NE 12.7 mph 19.6 mph N/A   Partly Cloudy
11:15 AM 82.4 °F 87.2 °F 71.6 °F 70% 30.04 in 8.0 mi NNE 10.4 mph 16.1 mph N/A   Scattered Clouds
11:35 AM 84.2 °F 89.6 °F 71.6 °F 66% 30.04 in 10.0 mi NNE 11.5 mph 19.6 mph N/A   Partly Cloudy
11:55 AM 84.2 °F 89.6 °F 71.6 °F 66% 30.04 in 8.0 mi NE 11.5 mph - N/A   Mostly Cloudy
12:15 PM 87.8 °F 93.8 °F 71.6 °F 58% 30.04 in 8.0 mi ENE 10.4 mph 18.4 mph N/A   Scattered Clouds
12:35 PM 86.0 °F 90.4 °F 69.8 °F 58% 30.03 in 8.0 mi NE 15.0 mph - N/A   Scattered Clouds
12:55 PM 87.8 °F 92.6 °F 69.8 °F 55% 30.03 in 8.0 mi ENE 13.8 mph - N/A   Partly Cloudy
1:15 PM 87.8 °F 92.6 °F 69.8 °F 55% 30.02 in 9.0 mi NE 13.8 mph 17.3 mph N/A   Partly Cloudy
1:35 PM 87.8 °F 92.6 °F 69.8 °F 55% 30.02 in 9.0 mi East 15.0 mph 20.7 mph N/A   Partly Cloudy
1:55 PM 87.8 °F 91.4 °F 68.0 °F 52% 30.01 in 10.0 mi East 10.4 mph - N/A   Partly Cloudy
2:15 PM 89.6 °F 94.7 °F 69.8 °F 52% 30.01 in 7.0 mi East 15.0 mph 19.6 mph N/A   Scattered Clouds
2:35 PM 87.8 °F 92.6 °F 69.8 °F 55% 30.01 in 8.0 mi East 13.8 mph 17.3 mph N/A   Mostly Cloudy
2:55 PM 87.8 °F 90.4 °F 66.2 °F 49% 30.01 in 9.0 mi East 11.5 mph - N/A   Partly Cloudy
3:15 PM 87.8 °F 90.4 °F 66.2 °F 49% 30.01 in 8.0 mi East 11.5 mph 16.1 mph N/A   Clear
3:55 PM 87.8 °F 88.5 °F 62.6 °F 43% 30.00 in 10.0 mi ENE 11.5 mph - N/A   Scattered Clouds
4:15 PM 87.8 °F 89.4 °F 64.4 °F 46% 29.98 in 9.0 mi East 10.4 mph - N/A   Partly Cloudy
4:35 PM 84.2 °F 87.3 °F 68.0 °F 58% 29.99 in 8.0 mi East 10.4 mph - N/A   Clear
4:55 PM 84.2 °F 86.6 °F 66.2 °F 55% 29.99 in 10.0 mi ENE 11.5 mph - N/A   Partly Cloudy
5:15 PM 84.2 °F 87.3 °F 68.0 °F 58% 29.98 in 8.0 mi ENE 12.7 mph 16.1 mph N/A   Partly Cloudy
5:35 PM 84.2 °F 85.6 °F 64.4 °F 51% 29.98 in 9.0 mi ENE 10.4 mph - N/A   Scattered Clouds
5:55 PM 82.4 °F 83.9 °F 64.4 °F 54% 29.98 in 9.0 mi NE 9.2 mph - N/A   Mostly Cloudy
6:15 PM 82.4 °F 83.9 °F 64.4 °F 54% 29.98 in 10.0 mi NE 9.2 mph - N/A   Mostly Cloudy
6:35 PM 82.4 °F 83.9 °F 64.4 °F 54% 29.98 in 9.0 mi NNE 10.4 mph - N/A   Mostly Cloudy
6:55 PM 80.6 °F 82.7 °F 66.2 °F 61% 29.98 in 8.0 mi NE 10.4 mph - N/A   Mostly Cloudy
7:15 PM 80.6 °F 83.2 °F 68.0 °F 65% 29.99 in 10.0 mi NE 9.2 mph - N/A   Mostly Cloudy
7:35 PM 78.8 °F - 68.0 °F 69% 29.99 in 8.0 mi NE 10.4 mph - N/A   Mostly Cloudy
7:55 PM 78.8 °F - 66.2 °F 65% 29.99 in 9.0 mi NE 11.5 mph - N/A   Scattered Clouds
8:15 PM 78.8 °F - 66.2 °F 65% 30.00 in 9.0 mi NNE 10.4 mph - N/A   Mostly Cloudy
8:35 PM 78.8 °F - 66.2 °F 65% 30.00 in 10.0 mi NNE 6.9 mph - N/A   Mostly Cloudy
8:55 PM 78.8 °F - 66.2 °F 65% 30.00 in 10.0 mi NE 8.1 mph - N/A   Mostly Cloudy
9:15 PM 77.0 °F - 66.2 °F 69% 30.01 in 10.0 mi NE 8.1 mph - N/A   Mostly Cloudy
9:35 PM 77.0 °F - 68.0 °F 74% 30.01 in 10.0 mi NE 11.5 mph - N/A   Mostly Cloudy
9:55 PM 77.0 °F - 68.0 °F 74% 30.02 in 9.0 mi NE 8.1 mph - N/A   Mostly Cloudy
10:15 PM 77.0 °F - 68.0 °F 74% 30.02 in 10.0 mi NE 5.8 mph - N/A   Mostly Cloudy
10:35 PM 77.0 °F - 68.0 °F 74% 30.02 in 10.0 mi NNE 9.2 mph - N/A   Mostly Cloudy
10:55 PM 77.0 °F - 69.8 °F 78% 30.03 in 10.0 mi NE 9.2 mph - N/A   Mostly Cloudy
11:15 PM 77.0 °F - 69.8 °F 78% 30.02 in 10.0 mi NE 11.5 mph - N/A   Mostly Cloudy
11:35 PM 75.2 °F - 69.8 °F 83% 30.01 in 10.0 mi NE 10.4 mph - N/A   Scattered Clouds
11:55 PM 75.2 °F - 69.8 °F 83% 30.02 in 10.0 mi NE 9.2 mph - N/A   Mostly Cloudy